KL7GG Weather Reports


Display with metric or nautical units.
time (UTC)temp
F
wind
direction
speed
MPH
gust
MPH
rain 1hr
in
rain 24hr
in
rain mn
in
humidity
%
barometer
mb
20260502202150 50 185 7.0 14.0 0.00 0.00 0.00 44 1013.5
20260502200646 49 180 8.0 16.0 0.00 0.00 0.00 44 1013.3
20260502195142 47 137 2.0 5.0 0.00 0.00 0.00 54 1013.1
20260502193636 44 0 0.0 1.0 0.00 0.00 0.00 63 1013.1
20260502192132 44 0 0.0 0.0 0.00 0.00 0.00 66 1013.1
20260502190628 43 0 0.0 5.0 0.00 0.00 0.00 67 1012.8
20260502185124 42 141 1.0 6.0 0.00 0.00 0.00 70 1012.6
20260502183620 41 0 0.0 4.0 0.00 0.00 0.00 72 1012.7
20260502182114 41 0 0.0 0.0 0.00 0.00 0.00 73 1012.6
20260502163538 39 0 0.0 4.0 0.00 0.00 0.00 77 1011.1
20260502162034 38 0 0.0 2.0 0.00 0.00 0.00 78 1010.8
20260502160530 37 319 1.0 5.0 0.00 0.00 0.00 79 1010.5
20260502152015 38 335 2.0 8.0 0.00 0.00 0.00 77 1010.0
20260502150508 38 0 0.0 6.0 0.00 0.00 0.00 74 1009.7
20260502130430 42 135 2.0 11.0 0.00 0.00 0.00 53 1007.3
20260502123422 42 126 5.0 14.0 0.00 0.00 0.00 54 1007.1
20260502121918 42 126 6.0 12.0 0.00 0.00 0.00 53 1007.0
20260502120414 42 114 6.0 18.0 0.00 0.00 0.00 53 1006.9
20260502114908 42 85 1.0 16.0 0.00 0.00 0.00 52 1007.0
20260502113404 42 104 7.0 16.0 0.00 0.00 0.00 52 1006.7
20260502111900 42 124 5.0 14.0 0.00 0.00 0.00 52 1006.6
20260502110354 42 0 0.0 5.0 0.00 0.00 0.00 52 1006.5
20260502104850 42 0 0.0 10.0 0.00 0.00 0.00 51 1006.1
20260502103346 42 119 1.0 12.0 0.00 0.00 0.00 52 1005.8
20260502101840 42 131 1.0 7.0 0.00 0.00 0.00 52 1005.6
20260502100336 42 151 1.0 11.0 0.00 0.00 0.00 52 1005.3
20260502090320 41 0 0.0 19.0 0.00 0.00 0.00 54 1004.2
20260502070246 39 117 6.0 20.0 0.00 0.00 0.00 67 1002.6
20260502064742 38 125 5.0 16.0 0.00 0.00 0.00 69 1002.0
20260502063236 38 132 9.0 23.0 0.00 0.00 0.00 70 1001.7
20260502061730 39 124 7.0 17.0 0.00 0.00 0.00 69 1001.2
20260502060226 39 137 7.0 18.0 0.00 0.00 0.00 67 1001.0
20260502054720 39 126 9.0 19.0 0.00 0.00 0.00 66 1000.8
20260502053216 40 137 9.0 19.0 0.00 0.00 0.00 63 1000.4
20260502051712 40 134 12.0 22.0 0.00 0.00 0.00 60 1000.0
20260502050208 40 128 9.0 18.0 0.00 0.00 0.00 59 999.7
20260502044702 41 130 9.0 22.0 0.00 0.00 0.00 58 999.6
20260502041652 42 139 8.0 20.0 0.00 0.00 0.00 54 999.3
20260502040148 42 117 4.0 22.0 0.00 0.00 0.00 54 999.2
20260502034644 42 129 12.0 25.0 0.00 0.00 0.00 54 999.0
20260502033140 41 130 11.0 17.0 0.00 0.00 0.00 60 998.9
20260502031634 41 130 9.0 24.0 0.00 0.00 0.00 57 998.7
20260502030128 42 137 12.0 23.0 0.00 0.00 0.00 54 998.8
20260502024624 42 131 14.0 23.0 0.00 0.00 0.00 52 999.2
20260502023118 42 146 14.0 24.0 0.00 0.00 0.00 53 999.2
20260502020108 42 126 11.0 28.0 0.00 0.00 0.00 52 998.9
20260502014602 43 138 9.0 29.0 0.00 0.00 0.00 48 999.2
20260502013058 43 135 17.0 29.0 0.00 0.00 0.00 47 999.1
20260502011554 43 153 11.0 30.0 0.00 0.00 0.00 47 999.3
20260502010050 44 145 8.0 19.0 0.00 0.00 0.00 46 999.3
20260502004546 44 150 9.0 21.0 0.00 0.00 0.00 45 999.5
20260502003042 44 139 8.0 23.0 0.00 0.00 0.00 44 999.6
20260502001538 44 141 9.0 17.0 0.00 0.00 0.00 43 999.8
20260502000034 45 149 3.0 22.0 0.00 0.00 0.00 43 999.6
20260501234530 45 136 17.0 25.0 0.00 0.00 0.00 42 999.8
20260501233026 45 138 12.0 27.0 0.00 0.00 0.00 43 999.9
20260501230016 45 145 7.0 23.0 0.00 0.00 0.00 42 1000.3
20260501224512 45 127 9.0 24.0 0.00 0.00 0.00 41 1000.3
20260501223008 45 134 11.0 26.0 0.00 0.00 0.00 41 1000.1
20260501221502 45 138 16.0 33.0 0.00 0.00 0.00 42 1000.3
20260501212946 44 131 16.0 32.0 0.00 0.00 0.00 42 1001.3
20260501205936 45 135 12.0 27.0 0.00 0.00 0.00 41 1001.5
20260501204430 45 137 10.0 22.0 0.00 0.00 0.00 41 1001.9
20260501202926 45 145 9.0 24.0 0.00 0.00 0.00 42 1001.8